FW3274 Weather Reports


Display with metric or nautical units.
time (UTC)temp
F
wind
direction
speed
MPH
gust
MPH
rain 1hr
in
rain 24hr
in
rain mn
in
humidity
%
barometer
mb
20260831050015 70 30 0.0 0.0 0.00 0.00 0.00 70 1008.3
20260831044515 70 34 0.0 0.0 0.00 0.00 0.00 70 1008.2
20260831043019 70 34 0.0 0.0 0.00 0.00 0.00 71 1008.1
20260831041519 69 34 0.0 0.0 0.00 0.00 0.00 72 1008.1
20260831040016 69 34 0.0 0.0 0.00 0.00 0.00 71 1008.3
20260831034511 69 34 0.0 0.0 0.00 0.00 0.00 74 1008.3
20260831033018 68 34 0.0 0.0 0.00 0.00 0.00 75 1008.4
20260831031511 68 34 0.0 0.0 0.00 0.00 0.00 76 1008.6
20260831030007 69 34 0.0 0.0 0.00 0.00 0.00 77 1008.6
20260831024506 69 35 0.0 0.0 0.00 0.00 0.00 76 1008.5
20260831023011 70 34 0.0 0.0 0.00 0.00 0.00 76 1008.5
20260831021503 70 308 0.0 0.0 0.00 0.00 0.00 73 1008.6
20260831020003 70 308 0.0 0.0 0.00 0.00 0.00 72 1008.5
20260831014501 70 308 0.0 0.0 0.00 0.00 0.00 74 1008.5
20260831013102 70 308 0.0 0.0 0.00 0.00 0.00 73 1008.6
20260831011559 70 308 0.0 0.0 0.00 0.00 0.00 73 1008.7
20260831010105 71 308 0.0 0.0 0.00 0.00 0.00 72 1008.7
20260831004554 71 308 0.0 0.0 0.00 0.00 0.00 70 1008.7
20260831003052 72 308 0.0 0.0 0.00 0.00 0.00 66 1008.7
20260831001553 73 308 0.0 0.0 0.00 0.00 0.00 65 1008.7
20260831000051 74 308 0.0 0.0 0.00 0.00 0.00 63 1008.8
20260830234549 74 308 0.0 0.0 0.00 0.00 0.00 62 1008.8
20260830233045 74 308 0.0 0.0 0.00 0.00 0.00 61 1008.7
20260830231544 74 10 0.0 0.0 0.00 0.00 0.00 63 1008.8
20260830230043 74 13 0.0 0.0 0.00 0.00 0.00 63 1008.9
20260830224542 74 63 0.0 0.0 0.00 0.00 0.00 62 1008.9
20260830223040 74 63 0.0 0.0 0.00 0.00 0.00 62 1009.0
20260830221539 75 63 0.0 0.0 0.00 0.00 0.00 62 1008.9
20260830220039 75 63 0.0 0.0 0.00 0.00 0.00 62 1008.9
20260830214537 75 65 0.0 0.0 0.00 0.00 0.00 62 1008.9
20260830213050 75 67 0.0 0.0 0.00 0.00 0.00 63 1008.9
20260830211537 75 73 0.0 0.0 0.00 0.00 0.00 63 1008.8
20260830210036 75 74 0.0 0.0 0.00 0.00 0.00 64 1008.8
20260830204541 76 75 0.0 0.0 0.00 0.00 0.00 65 1008.7
20260830203035 76 76 0.0 0.0 0.00 0.00 0.00 66 1008.7
20260830201536 76 76 0.0 0.0 0.00 0.00 0.00 65 1008.7
20260830200034 77 76 0.0 0.0 0.00 0.00 0.00 64 1008.7
20260830194536 77 76 0.0 0.0 0.00 0.00 0.00 63 1008.6
20260830193035 78 76 0.0 0.0 0.00 0.00 0.00 63 1008.6
20260830191536 79 71 0.0 0.0 0.00 0.00 0.00 60 1008.5
20260830190033 80 72 0.0 0.0 0.00 0.00 0.00 59 1008.5
20260830184538 81 72 0.0 0.0 0.00 0.00 0.00 61 1008.5
20260830183032 81 72 0.0 0.0 0.00 0.00 0.00 59 1008.3
20260830181531 82 72 0.0 0.0 0.00 0.00 0.00 58 1008.1
20260830180032 83 72 0.0 0.0 0.00 0.00 0.00 56 1007.9
20260830174530 84 72 0.0 0.0 0.00 0.00 0.00 53 1007.9
20260830173029 85 72 0.0 0.0 0.00 0.00 0.00 48 1007.8
20260830171529 86 72 0.0 0.0 0.00 0.00 0.00 46 1007.8
20260830170027 87 73 0.0 0.0 0.00 0.00 0.00 43 1007.9
20260830164526 88 72 0.0 0.0 0.00 0.00 0.00 43 1007.9
20260830163029 89 73 0.0 1.0 0.00 0.00 0.00 42 1008.0
20260830161525 89 72 0.0 0.0 0.00 0.00 0.00 41 1008.0
20260830160026 89 71 0.0 3.0 0.00 0.00 0.00 42 1008.0
20260830154524 90 97 0.0 0.0 0.00 0.00 0.00 41 1008.1
20260830153023 90 110 0.0 3.0 0.00 0.00 0.00 39 1008.2
20260830151523 90 80 0.0 2.0 0.00 0.00 0.00 39 1008.2
20260830150037 91 221 0.0 4.0 0.00 0.00 0.00 40 1008.2
20260830144522 89 69 0.0 3.0 0.00 0.00 0.00 40 1008.2
20260830143019 90 83 0.0 3.0 0.00 0.00 0.00 41 1008.3
20260830141519 91 5 0.0 2.0 0.00 0.00 0.00 39 1008.4
20260830140017 90 85 0.0 6.0 0.00 0.00 0.00 41 1008.5
20260830134531 90 76 0.0 3.0 0.00 0.00 0.00 40 1008.6
20260830133014 91 92 0.0 1.0 0.00 0.00 0.00 44 1008.7
20260830131515 90 203 0.0 3.0 0.00 0.00 0.00 42 1008.8
20260830130011 90 87 0.0 4.0 0.00 0.00 0.00 44 1009.0
20260830124509 89 80 0.0 3.0 0.00 0.00 0.00 40 1009.0
20260830123008 89 107 0.0 1.0 0.00 0.00 0.00 42 1009.1
20260830121507 89 105 0.0 3.0 0.00 0.00 0.00 42 1009.1
20260830120011 89 89 0.0 3.0 0.00 0.00 0.00 45 1009.2
20260830114506 90 217 0.0 0.0 0.00 0.00 0.00 46 1009.2
20260830113003 89 61 0.0 3.0 0.00 0.00 0.00 46 1009.2
20260830111502 88 73 0.0 4.0 0.00 0.00 0.00 45 1009.2
20260830110101 88 66 0.0 3.0 0.00 0.00 0.00 44 1009.2
20260830104600 88 76 0.0 3.0 0.00 0.00 0.00 47 1009.4
20260830103059 88 104 0.0 1.0 0.00 0.00 0.00 48 1009.5
20260830101558 88 93 0.0 3.0 0.00 0.00 0.00 47 1009.6
20260830100055 88 82 0.0 1.0 0.00 0.00 0.00 48 1009.8
20260830094555 87 89 0.0 0.0 0.00 0.00 0.00 50 1010.0
20260830093057 86 80 0.0 3.0 0.00 0.00 0.00 50 1010.0
20260830091553 86 74 0.0 2.0 0.00 0.00 0.00 52 1010.1
20260830084555 84 69 0.0 2.0 0.00 0.00 0.00 51 1010.2
20260830083054 84 59 0.0 2.0 0.00 0.00 0.00 50 1010.2
20260830081544 84 64 0.0 2.0 0.00 0.00 0.00 51 1010.1
20260830080041 83 62 0.0 3.0 0.00 0.00 0.00 51 1010.2
20260830074538 83 98 0.0 2.0 0.00 0.00 0.00 54 1010.1
20260830073038 82 94 0.0 1.0 0.00 0.00 0.00 53 1009.9
20260830071534 81 316 0.0 0.0 0.00 0.00 0.00 58 1009.9
20260830070031 80 315 0.0 0.0 0.00 0.00 0.00 59 1009.8
20260830064532 79 316 0.0 0.0 0.00 0.00 0.00 63 1009.7
20260830063025 77 316 0.0 0.0 0.00 0.00 0.00 66 1009.8
20260830061528 75 319 0.0 0.0 0.00 0.00 0.00 69 1009.7
20260830060017 74 344 0.0 0.0 0.00 0.00 0.00 72 1009.7
20260830054513 72 346 0.0 0.0 0.00 0.00 0.00 74 1009.8
20260830053012 70 25 0.0 0.0 0.00 0.00 0.00 77 1009.7
20260830051512 69 25 0.0 0.0 0.00 0.00 0.00 78 1009.6